Regional Weather Roundup
Issued by NWS Green Bay, WI

Home | Current Version | Previous Version | Graphics & Text | Print | Product List | Glossary Off
Versions: 1 2 3 4 5 6 7 8 9 10 11 12 13 14 15 16 17 18 19 20 21 22 23 24 25 26 27 28 29 30 31 32 33 34 35 36 37 38 39 40 41 42 43 44 45 46 47 48 49 50

000
ASUS43 KGRB 181910
RWRGRB

NORTH-CENTRAL AND NORTHEAST WISCONSIN REGIONAL WEATHER ROUNDUP
NATIONAL WEATHER SERVICE GREEN BAY WI
100 PM CST THU DEC 18 2014

WIZ005-009-010>012-018-019-182000-
NORTH CENTRAL WISCONSIN

CITY           SKY/WX    TMP DP  RH WIND       PRES   REMARKS
IRONWOOD       SUNNY     25  18  74 E5        30.21F
MANITOWISH WTR MOSUNNY   24  16  71 S5        30.21F
ARBOR VITAE    SUNNY     23  16  75 CALM      30.21F
EAGLE RIVER    SUNNY     24  15  67 CALM      30.20F
LAND O LAKES   SUNNY     25  18  72 CALM      30.21F
RHINELANDER    SUNNY     22  15  75 CALM      30.21F
PHILLIPS       CLOUDY    21  17  83 SE5       30.23F
ANTIGO         SUNNY     25  17  71 N3        30.20F
TOMAHAWK       CLOUDY    24  18  78 CALM      30.23F
MERRILL        CLOUDY    25  18  76 CALM      30.23F
$$

WIZ013-073-182000-
NORTHEAST WISCONSIN

CITY           SKY/WX    TMP DP  RH WIND       PRES   REMARKS
IRON MOUNTAIN  SUNNY     27  16  63 N6        30.22F
MARINETTE      MOSUNNY   30  18  59 CALM      30.24F
OCONTO         MOSUNNY   27  19  74 CALM      30.25F
$$

WIZ017-030-035>037-045-182000-
CENTRAL WISCONSIN

CITY           SKY/WX    TMP DP  RH WIND       PRES   REMARKS
MEDFORD        CLOUDY    22  18  84 CALM      30.22F
WAUSAU         CLOUDY    25  19  78 CALM      30.22F
MOSINEE        CLOUDY    25  21  86 E3        30.24F
MARSHFIELD     CLOUDY    25  19  78 VRB5      30.23F
WISC RAPIDS    CLOUDY    25  19  78 VRB3      30.26F
STEVENS POINT  CLOUDY    24  18  79 E3        30.24F
WAUPACA        CLOUDY    29  20  68 N3        30.25F
SHAWANO        SUNNY     32  19  59 E3        30.25F
CLINTONVILLE   MOSUNNY   30  19  64 E3        30.25F
$$

WIZ038-039-048-051-182000-
FOX VALLEY

CITY           SKY/WX    TMP DP  RH WIND       PRES   REMARKS
NWS GREEN BAY  CLOUDY    28  20  71 N7        30.25F
APPLETON       CLOUDY    27  19  74 N6        30.24F
OSHKOSH        CLOUDY    27  20  75 N7        30.24F
FOND DU LAC    CLOUDY    28  20  71 N8        30.24F
$$

WIZ022-050-052-182000-
EAST CENTRAL WISCONSIN

CITY           SKY/WX    TMP DP  RH WIND       PRES   REMARKS
STURGEON BAY   PTSUNNY   27  18  69 N9        30.25F
MANITOWOC      CLOUDY    29  24  82 NW9       30.23F
SHEBOYGAN      CLOUDY    28  21  75 NW9       30.23F
$$

LMZ563-521-522-541>543-182000-
LAKESHORE

STATION/POSITION TIME  TEMP    WIND        PRES    VSBY  WAVE
                       AIR SEA DIR/SP/G                  HT/PER
                 (UTC) (F)     (DEG/KT/KT) (MB)    (MI)  (FT/S)
SHEBOYGAN LKSHOR 1900   28 34  320/  9/ 12 1024.7F
KEWAUNEE LKSHORE 1900   28     330/  6/ 10 1022.8F
ALGOMA MARINA    1800          360/  9/ 11   N/A
NORTHPORT PIER   1900   27     340/  7/  9 1024.0F
SISTER BAY LKSHO 1800           20/ 12/ 14   N/A
STURGEON BAY CG  1900   30     360/  4       N/A       6   1
CHAMBERS ISLAND  1900   28      10/  8/ 11 1024.4S
MENOMINEE LKSHOR 1900   28      30/  5/  8 1024.7F
$$


USA.gov is the U.S. government's official web portal to all federal, state and local government web resources and services.